Flag for Australia Weather past 2 weeks in Townsville, Queensland, Australia

Now
77 °F

Passing clouds.


Feels Like: 79 °F
Forecast: 73 / 80 °F
Wind: 7 mph from East

Location: Townsville Amo


UV Index: 7 (High)

Visibility: N/A


Pressure: 29.98 "Hg

Humidity: 79%

Dew point: 70 °F

Location of TownsvilleLocation

Historic Weather in Townsville

°F

Townsville temperature yesterday

Maximum temperature yesterday: 84 °F (at 11:00 AM)
Minimum temperature yesterday: 75 °F (at 3:00 AM)
Average temperature yesterday: 79 °F

Past Weeks' High & Low Weather Summary

 TemperatureHumidityPressure
High86 °F (Apr 3, 2:30 PM)100% (Apr 11, 6:30 PM)30.01 "Hg (Apr 11, 6:30 PM)
Low70 °F (Apr 3, 6:30 AM)51% (Apr 3, 11:00 AM)29.45 "Hg (Apr 13, 8:30 AM)
Average79 °F77%29.86 "Hg
* Reported Apr 2 7:00 PM — Apr 17 7:00 PM, Townsville, Weather by CustomWeather, © 2014

Note: Actual official high and low records may vary slightly from our data, if they occured in-between our weather recording intervals... More about our weather records

Advertising

Historic Weather Conditions — Data for Previous 24 hours

 ConditionsComfort  
Time TempWeatherWind HumidityBarometerVisibility
7:00 PM
Apr 17
79 °FClear.9 mph74%29.95 "HgN/A
6:30 PM79 °FClear.10 mph79%29.95 "HgN/A
6:00 PM79 °FSunny.12 mph74%29.92 "HgN/A
5:00 PM82 °FPassing clouds.12 mph66%29.92 "HgN/A
4:00 PM82 °FPassing clouds.13 mph62%29.92 "HgN/A
3:30 PM84 °FPassing clouds.13 mph66%29.92 "HgN/A
3:00 PM84 °FPassing clouds.13 mph62%29.92 "HgN/A
2:30 PM84 °FPassing clouds.13 mph66%29.92 "HgN/A
2:00 PM84 °FPassing clouds.13 mph62%29.95 "HgN/A
1:30 PM84 °FScattered clouds.12 mph62%29.95 "HgN/A
1:00 PM84 °FScattered showers. Scattered clouds.13 mph62%29.95 "HgN/A
12:30 PM84 °FScattered clouds.10 mph58%29.98 "HgN/A
12:00 PM84 °FScattered clouds.10 mph58%29.98 "HgN/A
11:30 AM84 °FScattered clouds.9 mph62%30.01 "HgN/A
11:00 AM82 °FScattered clouds.10 mph66%30.01 "HgN/A
10:30 AM82 °FScattered clouds.12 mph66%30.01 "HgN/A
10:00 AM82 °FScattered clouds.10 mph66%30.01 "HgN/A
9:30 AM82 °FScattered clouds.10 mph66%30.01 "HgN/A
9:00 AM82 °FScattered clouds.9 mph66%30.01 "HgN/A
8:30 AM81 °FScattered clouds.9 mph70%30.01 "HgN/A
8:00 AM79 °FScattered clouds.8 mph74%29.98 "HgN/A
7:30 AM77 °FScattered clouds.8 mph83%29.98 "HgN/A
7:00 AM75 °FScattered clouds.7 mph83%29.98 "HgN/A
6:30 AM73 °FScattered clouds.6 mph89%29.95 "HgN/A
6:00 AM73 °FPassing clouds.6 mph89%29.95 "HgN/A
5:30 AM73 °FClear.6 mph89%29.92 "HgN/A
5:00 AM75 °FClear.6 mph83%29.92 "HgN/A
4:30 AM75 °FClear.7 mph83%29.92 "HgN/A
4:00 AM75 °FClear.7 mph89%29.92 "HgN/A
3:30 AM75 °FClear.8 mph89%29.92 "HgN/A
3:00 AM77 °FClear.6 mph83%29.92 "HgN/A
2:30 AM77 °FClear.6 mph83%29.92 "HgN/A
2:00 AM77 °FClear.7 mph83%29.92 "HgN/A
1:30 AM77 °FClear.8 mph83%29.92 "HgN/A
1:00 AM77 °FClear.8 mph83%29.95 "HgN/A
12:30 AM77 °FPassing clouds.8 mph83%29.95 "HgN/A
12:00 AM77 °FPassing clouds.7 mph83%29.95 "HgN/A
11:00 PM
Apr 16
77 °FClear.7 mph83%29.95 "HgN/A
10:00 PM79 °FPartly cloudy.6 mph79%29.95 "HgN/A
9:30 PM79 °FPartly cloudy.6 mph79%29.95 "HgN/A
9:00 PM77 °FPassing clouds.6 mph83%29.95 "HgN/A
8:30 PM79 °FPassing clouds.9 mph74%29.95 "HgN/A
8:00 PM79 °FPassing clouds.8 mph79%29.95 "HgN/A
Weather by CustomWeather, © 2014

See weather overview